Regional Weather Roundup
Issued by NWS

Home | Current Version | Previous Version | Graphics & Text | Print | Product List | Glossary Off
Versions: 1 2 3 4 5 6 7 8 9 10 11 12 13 14 15 16 17 18 19 20 21 22 23 24 25 26 27 28 29 30 31 32 33 34 35 36 37 38 39 40 41 42 43 44 45 46 47 48 49 50

000
ASUS45 KSLC 310510
RWRUT
UTAH REGIONAL WEATHER ROUNDUP
NATIONAL WEATHER SERVICE SALT LAKE CITY UT
1100 PM MDT THU JUL 30 2015

UTZ001>011-023>025-310600-

NORTHERN UTAH

CITY           SKY/WX    TMP DP  RH WIND       PRES   REMARKS
BRIGHAM CITY   CLEAR     73  37  27 CALM      30.23R
HILL AFB       CLEAR     72  31  21 E12       30.25S
LOGAN          CLEAR     63  46  54 W6        30.25R
OGDEN          CLEAR     70  34  26 S7        30.22S
PROVO AIRPORT  CLEAR     70  39  32 SE3       30.24R
SALT LAKE CITY PTCLDY    74  33  22 S6        30.21R
VERNAL         PTCLDY    70  33  25 NW6       30.26R
WENDOVER       PTCLDY    75  30  19 NE6       30.22R
HEBER CITY     CLEAR     55  34  44 SE3       30.33S
WEST JORDAN    CLEAR     72  30  21 CALM      30.25R

$$

UTZ012>022-026-027-310600-

SOUTHERN/CENTRAL UTAH

CITY           SKY/WX    TMP DP  RH WIND       PRES   REMARKS
BLANDING       MOCLDY    72  50  45 E3        30.41R
BRYCE CANYON   CLOUDY    61  44  53 SW5       30.47R
CEDAR CITY     PTCLDY    74  38  27 SE6       30.27S
DELTA          CLEAR     76  24  14 NE7       30.23R
HANKSVILLE     PTCLDY    77  23  13 N8        30.19R
MILFORD        PTCLDY    73  21  14 N10       30.22R
MOAB/CYNLANDS  CLEAR     76  22  13 CALM      30.15R
PRICE          PTCLDY    75  19  12 N7        30.31R
ST GEORGE      CLEAR     90  46  22 SW9       30.08R
KANAB          CLOUDY    73  52  46 CALM      30.30R

$$

REGIONAL REPORTS     COLORADO/ARIZONA

CITY           SKY/WX    TMP DP  RH WIND       PRES   REMARKS
CRAIG, CO      CLEAR     55  34  45 CALM      30.34S
GRAND JUNCTION PTCLDY    75  33  21 SE3       30.19R
RIFLE          CLEAR     68  32  26 SE7       30.27R
MONTROSE       PTCLDY    69  36  29 SE9       30.29R
CORTEZ         CLEAR     69  54  58 SW15      30.34R
PAGE, AZ       MOCLDY    84  51  31 S6        30.17R
GRAND CANYON   CLOUDY    70  46  42 CALM      30.38S
KINGMAN        LGT RAIN  78  59  51 S5        30.13F
FLAGSTAFF      PTCLDY    56  56 100 CALM      30.44R

$$

REGIONAL REPORTS    NEVADA/IDAHO/WYOMING

CITY           SKY/WX    TMP DP  RH WIND       PRES   REMARKS
LAS VEGAS, NV  CLOUDY    92  54  27 S10G22    30.01R HX  90
ELY            PTCLDY    74  20  13 N6        30.33R
ELKO           PTCLDY    75  22  13 E7        30.26R
POCATELLO, ID  CLEAR     65  34  31 S5        30.25R
BURLEY           N/A     63  42  46 SW6       30.22R
EVANSTON, WY   PTCLDY    66  25  21 N6        30.45R
ROCK SPRINGS   PTCLDY    71  14  11 NW3       30.39S
KEMMERER       CLEAR     61  28  29 NW13      30.46S

$$


USA.gov is the U.S. government's official web portal to all federal, state and local government web resources and services.